Weather Roundup
Issued by NWS

Home | Current Version | Previous Version | Graphics & Text | Print | Product List | Glossary Off
Versions: 1 2 3 4 5 6 7 8 9 10 11 12 13 14 15 16 17 18 19 20 21 22 23 24 25 26 27 28 29 30 31 32 33 34 35 36 37 38 39 40 41 42 43 44 45 46 47 48 49 50

000
NZUS93 KARX 050410
HRRWXR

CURRENT HOURLY OBSERVATIONS ACROSS
MUCH OF THE UPPER MISSISSIPPI VALLEY
NATIONAL WEATHER SERVICE LA CROSSE WI
1100 PM CDT TUE AUG 04 2015


...SOUTHEAST MINNESOTA...


CITY           SKY/WX    TMP DP  RH WIND       PRES   REMARKS
ROCHESTER      CLEAR     59  54  83 SW7       30.06S
ROCHESTER/MAYO FAIR      67  54  61 CALM      30.05S
WINONA         CLEAR     63  59  88 CALM      30.02F
AUSTIN         CLEAR     63  57  82 CALM      30.04F
ALBERT LEA     CLEAR     59  57  94 CALM      30.05S
DODGE CENTER   PTCLDY    57  54  88 CALM      30.05S
PRESTON        CLEAR     62  55  80 SW6       30.06S
OWATONNA       CLEAR     61  52  72 CALM      30.04S
FARIBAULT      CLEAR     61  55  82 CALM      30.04S
$$

...ELSEWHERE IN MINNESOTA...


CITY           SKY/WX    TMP DP  RH WIND       PRES   REMARKS
MINNEAPOLIS    PTCLDY    73  53  49 W3        30.01S
INTNL FALLS    CLEAR     47  46  97 CALM      30.07R
DULUTH         PTCLDY    56  48  74 E5        30.07R
RED WING       CLEAR     63  59  88 CALM      30.01S
REDWOOD FALLS  PTCLDY    68  55  63 CALM      30.03R
MANKATO        CLEAR     68  50  52 S7        30.03S
WORTHINGTON    PTCLDY    61  55  82 E3        30.05R
FAIRMONT       PTCLDY    63  54  72 CALM      30.04R
$$

...SOUTHWEST WISCONSIN...


CITY           SKY/WX    TMP DP  RH WIND       PRES   REMARKS
LA CROSSE      CLEAR     66  59  78 S6        30.02R
PRAIRIE DU CHI CLEAR     61  56  82 CALM      30.04S
BOSCOBEL       CLEAR     59  56  89 CALM      30.04S
LONE ROCK      CLEAR     60  55  83 CALM      30.04S
PLATTEVILLE    CLEAR     65  56  72 CALM      30.05S
FORT MC COY    CLEAR     57  55  92 CALM      30.04S
CAMP DOUGLAS   CLEAR     53  53 100 CALM      30.03R
VIROQUA        FAIR      64  55  75 SW3       30.05S
WIS DELLS      CLEAR     60  53  78 CALM      30.04R
$$

...ELSEWHERE IN WISCONSIN...


CITY           SKY/WX    TMP DP  RH WIND       PRES   REMARKS
MILWAUKEE      PTCLDY    66  55  67 SW5       30.02S
MADISON        PTCLDY    63  54  72 CALM      30.03R
GREEN BAY      CLEAR     63  57  81 E6        30.03R
EAU CLAIRE     CLEAR     60  56  86 CALM      30.02R
BLACK RVR FLS  FAIR      55  55  99 CALM      30.02S
MEDFORD        CLEAR     56  54  91 NE5       30.05S
WAUSAU         CLEAR     62  54  74 N3        30.03R
WIS RAPIDS     LGT RAIN  59  53  80 CALM      30.04R
MARSHFIELD     CLEAR     60  54  80 CALM      30.04R
RICE LAKE      CLEAR     58  55  91 CALM      30.06R
$$

...NORTHEAST IOWA...


CITY           SKY/WX    TMP DP  RH WIND       PRES   REMARKS
DECORAH        CLEAR     61  57  88 CALM      30.04S
MASON CITY     PTCLDY    57  55  93 CALM      30.06S
CHARLES CITY   CLEAR     61  59  94 CALM      30.05S
OELWEIN        PTCLDY    61  59  94 NE5       30.05S
$$

...ELSEWHERE IN IOWA...


CITY           SKY/WX    TMP DP  RH WIND       PRES   REMARKS
DES MOINES     LGT RAIN  73  62  68 E7        30.00F
IOWA CITY      MOCLDY    69  64  84 CALM      30.04S
FORT DODGE     MOCLDY    64  57  77 E8        30.04R
$$

...NORTHERN ILLINOIS...


CITY           SKY/WX    TMP DP  RH WIND       PRES   REMARKS
CHICAGO-OHARE  PTCLDY    68  57  68 SE5       30.03S
CHICAGO-MIDWAY MOCLDY    74  60  61 E5        30.03R
MOLINE         PTCLDY    67  63  87 CALM      30.04R
ROCKFORD       MOCLDY    65  57  75 CALM      30.06R
PEORIA         PTCLDY    71  63  75 CALM      30.04R
$$

NOTE: "FAIR" INDICATES FEW OR NO CLOUDS BELOW 12,000 FEET WITH NO
SIGNIFICANT WEATHER AND/OR OBSTRUCTIONS TO VISIBILITY. WIND
SPEEDS ARE IN MILES-PER-HOUR.



USA.gov is the U.S. government's official web portal to all federal, state and local government web resources and services.